Tracking 25648 objects as of 16-May-2022
HD Live streaming from Space Station
objects crossing your sky now

COSMOS 2251 DEB

Track COSMOS 2251 DEB now!
10-day predictions


NORAD ID: 35982
Int'l Code: 1993-036AVY
Perigee: 668.7 km
Apogee: 779.6 km
Inclination: 74.1 °
Period: 99.1 minutes
Semi major axis: 7095 km
RCS: 0.0109 m2 (small)
Launch date: June 16, 1993
Source: Commonwealth of Independent States (former USSR) (CIS)
Launch site: PLESETSK MISSILE AND SPACE COMPLEX (PKMTR)

Note: This is SATELLITE DEBRIS
aabbcc
Your satellite tracking list
Your tracking list is empty




NASA's NSSDC Master Catalog

Two Line Element Set (TLE):
1 35982U 93036AVY 22135.82384190  .00001441  00000-0  34503-3 0  9994
2 35982  74.0590 305.2052 0078195 350.3078   9.6570 14.52647673671339
Source of the keplerian elements: AFSPC